JE7ZDC Weather Reports


time (UTC)temp
C
wind
direction
speed
KPH
gust
KPH
rain 1hr
cm
rain 24hr
cm
rain mn
cm
humidity
%
barometer
mb
20260504224509 13 84 1.6 8.0 0.00 0.25 0.05 62 1017.4
20260504223005 12 37 0.0 3.2 0.00 0.25 0.05 70 1017.0
20260504221600 11 111 0.0 1.6 0.00 0.25 0.05 72 1016.8
20260504220115 10 30 0.0 3.2 0.00 0.25 0.05 75 1016.7
20260504214556 10 96 0.0 1.6 0.00 0.25 0.05 78 1016.6
20260504213056 9 37 0.0 3.2 0.00 0.25 0.05 82 1016.5
20260504211553 8 4 0.0 1.6 0.00 0.25 0.05 85 1016.4
20260504210046 7 37 0.0 3.2 0.00 0.25 0.05 87 1015.9
20260504204544 6 157 0.0 0.0 0.00 0.25 0.05 89 1015.7
20260504203042 -17 0.0 0.0 0.00 0.25 0.05 1015.5
20260504201538 -17 0.0 0.0 0.00 0.25 0.05 1015.3
20260504200040 -17 0.0 0.0 0.00 0.25 0.05 1015.0
20260504194528 -17 0.0 0.0 0.00 0.28 0.05 1014.6
20260504193023 -17 0.0 0.0 0.03 0.28 0.05 1014.5
20260504191535 6 54 0.0 0.0 0.05 0.28 0.05 88 1014.4
20260504190018 6 47 0.0 6.4 0.05 0.28 0.05 87 1014.1
20260504184515 6 345 3.2 25.7 0.05 0.28 0.05 85 1013.5
20260504183111 7 214 0.0 17.7 0.03 0.25 0.05 80 1013.3
20260504181508 7 245 0.0 3.2 0.00 0.23 0.03 78 1012.9
20260504180005 7 138 0.0 6.4 0.00 0.23 0.03 78 1012.7
20260504174504 7 138 0.0 3.2 0.00 0.23 0.03 79 1012.4
20260504173003 7 248 0.0 11.3 0.00 0.23 0.03 80 1012.3
20260504171558 8 266 0.0 14.5 0.03 0.23 0.03 76 1011.8
20260504081520 16 269 12.9 38.6 0.08 0.10 0.10 57 996.9
20260504044553 18 297 9.7 25.7 0.00 0.03 0.03 59 997.5
20260504043052 18 360 3.2 17.7 0.00 0.03 0.03 58 996.9
20260504041547 19 199 3.2 11.3 0.00 0.03 0.03 59 997.2
20260504040100 20 269 4.8 16.1 0.00 0.03 0.03 60 997.1
20260504034556 20 283 4.8 16.1 0.00 0.03 0.03 61 996.9
20260504033107 19 286 8.0 19.3 0.00 0.03 0.03 60 997.2
20260504031542 18 318 3.2 27.4 0.00 0.03 0.03 64 997.2
20260504030045 18 268 9.7 37.0 0.00 0.03 0.03 61 996.9
20260504024543 20 221 0.0 8.0 0.00 0.03 0.03 62 996.9
20260504023055 20 50 1.6 9.7 0.00 0.03 0.03 60 996.6
20260504021535 20 238 6.4 20.9 0.00 0.03 0.03 60 996.5
20260504020037 20 236 4.8 17.7 0.00 0.03 0.03 60 996.9
20260504014540 20 283 9.7 22.5 0.00 0.03 0.03 58 996.9
20260504013027 20 251 6.4 30.6 0.00 0.03 0.03 59 996.8
20260504011526 20 254 11.3 25.7 0.00 0.03 0.03 57 997.1
20260504010023 19 319 12.9 38.6 0.00 0.03 0.03 60 997.3
20260504004520 18 259 14.5 38.6 0.00 0.03 0.03 62 997.3
20260504003028 18 293 8.0 30.6 0.00 0.03 0.03 63 997.2
20260504001519 18 212 8.0 32.2 0.00 0.03 0.03 66 997.0
20260504000019 18 249 16.1 37.0 0.00 0.03 0.03 64 996.8
20260503234530 18 231 14.5 27.4 0.00 0.03 0.03 65 996.5
20260503233017 18 297 9.7 33.8 0.00 0.03 0.03 68 996.6
20260503231515 18 207 6.4 56.3 0.00 0.03 0.03 67 996.4
20260503230015 18 288 9.7 35.4 0.00 0.03 0.03 66 996.6